When you browse on this site, cookies collect data to enhance your experience and personalize the content and advertising you see.
Visit our Privacy Policy to learn more. By continuing to use the site, you agree to this use of cookies and data.
  • Em Portugal
  • Lista de países
  • Para 7 dias
  • Temperatura da água
  • Mapa do tempo
  • Widgets de tempo
  • user-avatar
    Iniciar Sessão

    Previsão horária em Piekielko

    Hoje, 20 Setembro, Sexta-feira

    Tempo Temperatura Precipitação Vento Pressão Humidade
    00:00 +4°C° 0 mm 2 m/s 735 mmHg 92%
    01:00 +4°C° 0 mm 2 m/s 735 mmHg 92%
    02:00 +4°C° 0 mm 2 m/s 735 mmHg 92%
    03:00 +4°C° 0 mm 2 m/s 735 mmHg 92%
    04:00 +3°C° 0 mm 2 m/s 735 mmHg 93%
    05:00 +4°C° 0 mm 2 m/s 735 mmHg 91%
    06:00 +5°C° 0 mm 2 m/s 735 mmHg 89%
    07:00 +6°C° 0 mm 2 m/s 735 mmHg 87%
    08:00 +7°C° 0.1 mm 3 m/s 735 mmHg 80%
    09:00 +9°C° 0.1 mm 3 m/s 735 mmHg 74%
    10:00 +11°C° 0.1 mm 4 m/s 736 mmHg 67%
    11:00 +11°C° 0.2 mm 4 m/s 735 mmHg 63%
    12:00 +12°C° 0.2 mm 4 m/s 735 mmHg 59%
    13:00 +13°C° 0.2 mm 5 m/s 735 mmHg 56%
    14:00 +12°C° 0.1 mm 4 m/s 735 mmHg 58%
    15:00 +12°C° 0.1 mm 4 m/s 734 mmHg 61%
    16:00 +12°C° 0.1 mm 3 m/s 734 mmHg 64%
    17:00 +10°C° 0 mm 2 m/s 734 mmHg 70%
    18:00 +8°C° 0 mm 2 m/s 734 mmHg 76%
    19:00 +8°C° 0 mm 1 m/s 735 mmHg 83%
    20:00 +7°C° 0 mm 1 m/s 735 mmHg 84%
    21:00 +7°C° 0 mm 1 m/s 735 mmHg 85%
    22:00 +6°C° 0 mm 2 m/s 735 mmHg 85%
    23:00 +6°C° 0 mm 2 m/s 735 mmHg 86%

    Amanhã, 21 Setembro, Sábado

    Tempo Temperatura Precipitação Vento Pressão Humidade
    00:00 +5°C° 0 mm 2 m/s 735 mmHg 87%
    01:00 +5°C° 0 mm 2 m/s 735 mmHg 88%
    02:00 +5°C° 0 mm 2 m/s 735 mmHg 88%
    03:00 +5°C° 0 mm 2 m/s 735 mmHg 88%
    04:00 +5°C° 0 mm 2 m/s 735 mmHg 88%
    05:00 +6°C° 0 mm 2 m/s 735 mmHg 85%
    06:00 +8°C° 0 mm 1 m/s 735 mmHg 82%
    07:00 +8°C° 0 mm 1 m/s 735 mmHg 78%
    08:00 +11°C° 0 mm 1 m/s 735 mmHg 70%
    09:00 +13°C° 0 mm 1 m/s 735 mmHg 61%
    10:00 +16°C° 0 mm 1 m/s 735 mmHg 53%
    11:00 +18°C° 0 mm 1 m/s 735 mmHg 51%
    12:00 +18°C° 0 mm 1 m/s 735 mmHg 49%
    13:00 +19°C° 0 mm 1 m/s 734 mmHg 47%
    14:00 +19°C° 0 mm 1 m/s 734 mmHg 51%
    15:00 +19°C° 0 mm 1 m/s 734 mmHg 54%
    16:00 +18°C° 0 mm 1 m/s 733 mmHg 58%
    17:00 +15°C° 0 mm 1 m/s 733 mmHg 65%
    18:00 +13°C° 0 mm 1 m/s 733 mmHg 72%
    19:00 +11°C° 0 mm 1 m/s 733 mmHg 80%
    20:00 +10°C° 0 mm 1 m/s 733 mmHg 81%
    21:00 +10°C° 0 mm 1 m/s 733 mmHg 81%
    22:00 +10°C° 0 mm 1 m/s 733 mmHg 82%
    23:00 +9°C° 0 mm 1 m/s 733 mmHg 83%

    Depois de amanhã, 22 Setembro, Domingo

    Tempo Temperatura Precipitação Vento Pressão Humidade
    00:00 +9°C° 0 mm 1 m/s 733 mmHg 83%
    01:00 +9°C° 0 mm 1 m/s 733 mmHg 83%
    02:00 +9°C° 0 mm 1 m/s 733 mmHg 83%
    03:00 +9°C° 0 mm 1 m/s 732 mmHg 82%
    04:00 +8°C° 0 mm 1 m/s 732 mmHg 82%
    05:00 +9°C° 0 mm 1 m/s 732 mmHg 79%
    06:00 +10°C° 0 mm 1 m/s 732 mmHg 76%
    07:00 +11°C° 0 mm 1 m/s 732 mmHg 73%
    08:00 +14°C° 0 mm 1 m/s 732 mmHg 65%
    09:00 +16°C° 0 mm 1 m/s 732 mmHg 58%
    10:00 +20°C° 0 mm 1 m/s 732 mmHg 51%
    11:00 +20°C° 0 mm 1 m/s 732 mmHg 49%
    12:00 +21°C° 0 mm 1 m/s 731 mmHg 47%
    13:00 +22°C° 0 mm 1 m/s 731 mmHg 45%
    14:00 +22°C° 0 mm 1 m/s 730 mmHg 49%
    15:00 +21°C° 0 mm 1 m/s 730 mmHg 53%
    16:00 +21°C° 0 mm 1 m/s 729 mmHg 57%
    17:00 +19°C° 0 mm 1 m/s 729 mmHg 64%
    18:00 +15°C° 0 mm 1 m/s 729 mmHg 70%
    19:00 +13°C° 0 mm 1 m/s 729 mmHg 76%
    20:00 +12°C° 0 mm 1 m/s 729 mmHg 76%
    21:00 +12°C° 0 mm 1 m/s 729 mmHg 77%
    22:00 +11°C° 0 mm 1 m/s 729 mmHg 77%
    23:00 +11°C° 0 mm 1 m/s 728 mmHg 76%

    23 Setembro, Segunda-feira

    Tempo Temperatura Precipitação Vento Pressão Humidade
    00:00 +11°C° 0 mm 1 m/s 728 mmHg 76%
    01:00 +10°C° 0 mm 1 m/s 728 mmHg 75%
    02:00 +11°C° 0 mm 1 m/s 728 mmHg 72%
    03:00 +11°C° 0 mm 1 m/s 727 mmHg 69%
    04:00 +11°C° 0 mm 1 m/s 727 mmHg 65%
    05:00 +12°C° 0 mm 1 m/s 727 mmHg 64%
    06:00 +13°C° 0 mm 1 m/s 727 mmHg 63%
    07:00 +13°C° 0 mm 1 m/s 726 mmHg 61%
    08:00 +14°C° 0 mm 1 m/s 727 mmHg 61%
    09:00 +15°C° 0 mm 2 m/s 727 mmHg 60%
    10:00 +15°C° 0 mm 2 m/s 727 mmHg 60%
    11:00 +15°C° 0 mm 2 m/s 727 mmHg 62%
    12:00 +15°C° 0 mm 2 m/s 726 mmHg 65%
    13:00 +15°C° 0 mm 2 m/s 726 mmHg 68%
    14:00 +15°C° 0 mm 1 m/s 726 mmHg 69%
    15:00 +15°C° 0 mm 1 m/s 726 mmHg 71%
    16:00 +15°C° 0 mm 1 m/s 726 mmHg 73%
    17:00 +15°C° 0 mm 1 m/s 726 mmHg 74%
    18:00 +14°C° 0 mm 1 m/s 726 mmHg 75%
    19:00 +14°C° 0 mm 1 m/s 725 mmHg 77%
    20:00 +14°C° 0 mm 1 m/s 725 mmHg 77%
    21:00 +13°C° 0 mm 1 m/s 725 mmHg 78%
    22:00 +13°C° 0 mm 1 m/s 725 mmHg 78%
    23:00 +13°C° 0 mm 1 m/s 725 mmHg 79%

    24 Setembro, Terça-feira

    Tempo Temperatura Precipitação Vento Pressão Humidade
    00:00 +13°C° 0 mm 1 m/s 725 mmHg 81%
    01:00 +12°C° 0 mm 1 m/s 725 mmHg 82%
    02:00 +12°C° 0 mm 1 m/s 725 mmHg 82%
    03:00 +11°C° 0 mm 0 m/s 725 mmHg 83%
    04:00 +11°C° 0 mm 0 m/s 725 mmHg 83%
    05:00 +11°C° 0 mm 0 m/s 725 mmHg 82%
    06:00 +12°C° 0 mm 0 m/s 725 mmHg 82%
    07:00 +12°C° 0 mm 0 m/s 725 mmHg 81%
    08:00 +12°C° 0 mm 0 m/s 725 mmHg 79%
    09:00 +13°C° 0 mm 0 m/s 725 mmHg 77%
    10:00 +14°C° 0 mm 0 m/s 725 mmHg 75%
    11:00 +14°C° 0 mm 0 m/s 725 mmHg 76%
    12:00 +14°C° 0 mm 0 m/s 725 mmHg 77%
    13:00 +14°C° 0 mm 0 m/s 724 mmHg 78%
    14:00 +14°C° 0 mm 0 m/s 724 mmHg 79%
    15:00 +14°C° 0 mm 0 m/s 724 mmHg 79%
    16:00 +14°C° 0 mm 0 m/s 724 mmHg 80%
    17:00 +14°C° 0 mm 1 m/s 725 mmHg 83%
    18:00 +13°C° 0 mm 1 m/s 725 mmHg 86%
    19:00 +12°C° 0 mm 1 m/s 725 mmHg 89%
    20:00 +11°C° 0 mm 1 m/s 725 mmHg 90%
    21:00 +10°C° 0 mm 0 m/s 725 mmHg 91%
    22:00 +10°C° 0 mm 0 m/s 725 mmHg 91%
    23:00 +10°C° 0 mm 0 m/s 725 mmHg 92%

    25 Setembro, Quarta-feira

    Tempo Temperatura Precipitação Vento Pressão Humidade
    00:00 +9°C° 0 mm 0 m/s 725 mmHg 92%
    01:00 +9°C° 0 mm 0 m/s 725 mmHg 92%
    02:00 +9°C° 0 mm 0 m/s 725 mmHg 93%
    03:00 +9°C° 0 mm 0 m/s 725 mmHg 93%
    04:00 +9°C° 0 mm 0 m/s 725 mmHg 93%
    05:00 +9°C° 0 mm 0 m/s 725 mmHg 91%
    06:00 +10°C° 0 mm 0 m/s 725 mmHg 89%
    07:00 +11°C° 0 mm 0 m/s 725 mmHg 87%
    08:00 +14°C° 0 mm 1 m/s 725 mmHg 80%
    09:00 +16°C° 0 mm 1 m/s 725 mmHg 74%
    10:00 +19°C° 0 mm 1 m/s 725 mmHg 67%
    11:00 +19°C° 0 mm 1 m/s 725 mmHg 65%
    12:00 +20°C° 0 mm 1 m/s 725 mmHg 63%
    13:00 +21°C° 0 mm 1 m/s 725 mmHg 60%
    14:00 +20°C° 0.1 mm 1 m/s 725 mmHg 65%
    15:00 +20°C° 0.1 mm 1 m/s 724 mmHg 71%
    16:00 +19°C° 0.1 mm 1 m/s 724 mmHg 76%
    17:00 +18°C° 0.1 mm 1 m/s 724 mmHg 80%
    18:00 +15°C° 0.1 mm 1 m/s 724 mmHg 84%
    19:00 +14°C° 0.1 mm 1 m/s 724 mmHg 88%
    20:00 +14°C° 0.1 mm 1 m/s 724 mmHg 88%
    21:00 +14°C° 0.1 mm 1 m/s 725 mmHg 87%
    22:00 +15°C° 0.1 mm 1 m/s 725 mmHg 87%
    23:00 +14°C° 0.1 mm 1 m/s 725 mmHg 88%
    Mostrar mais